Location: R�serve Fauniques des Laurentides
(47.3100°N, 71.1900°W)
Time: 19:46:39
(UTC-05:00)

Amateur Radio Satellites - All Passes

Search period start: 16 January 2017 19:16
Search period end: 17 January 2017 19:16
Location: R�serve Fauniques des Laurentides, 47.3100°N, 71.1900°W

Satellite Date Start Highest point End Downlink Frequencies (MHz)
Time Altitude Azimuth
Cosmos 2499 16 Jan 19:16:59 19:25:09 53° 91° (E) 19:32:46 435.465 / 435.565
STRAND 1 16 Jan 19:17:25 19:22:35 78° 104° (ESE) 19:27:44 437.568
CUBEBUG 2 16 Jan 19:18:40 19:22:51 70° 258° (WSW) 19:27:00 437.445
GONETS M04 16 Jan 19:21:01 19:29:11 47° 88° (E) 19:37:24
CANX-2 16 Jan 19:22:51 19:26:22 25° 266° (W) 19:29:55 2200.000
HO-68 16 Jan 19:26:50 19:33:30 40° 263° (W) 19:40:12 435.675
Oscar 11 16 Jan 19:33:20 19:37:33 57° 73° (ENE) 19:41:49 145.826/435.025
CINEMA 3 16 Jan 19:33:29 19:36:02 15° 270° (W) 19:38:31 145.822/145.860
NOAA 18 16 Jan 19:33:41 19:34:48 11° 275° (W) 19:35:55 137.9125
HUMSAT D 16 Jan 19:40:35 19:42:56 15° 61° (ENE) 19:45:19 437.325/437.525
SEEDS 16 Jan 19:43:11 19:46:42 25° 266° (W) 19:50:15 437.485
UWE-3 16 Jan 19:56:38 20:00:36 43° 262° (W) 20:04:33 435.000/436.395/437.385
COMPASS 1 16 Jan 19:56:57 20:00:30 26° 266° (W) 20:04:06 437.405
FUNcube-1 16 Jan 20:04:31 20:08:37 63° 259° (W) 20:12:44 145.935
PRISM 16 Jan 20:05:27 20:07:44 14° 90° (E) 20:10:00 437.425
AAUSAT CUBESAT 2 16 Jan 20:13:00 20:16:21 23° 267° (W) 20:19:45 437.432
AIST 2 16 Jan 20:22:12 20:26:12 52° 121° (ESE) 20:30:18 435.215
ZACube-1 16 Jan 20:25:28 20:29:16 35° 263° (W) 20:33:06 437.345
DELFI C3 16 Jan 20:32:06 20:36:06 85° 75° (ENE) 20:40:09 145.870
UNISAT 6 16 Jan 20:45:38 20:47:48 13° 89° (E) 20:50:00 437.425
STRAND 1 16 Jan 20:57:51 21:01:10 18° 303° (WNW) 21:04:30 437.568
ESTCUBE 1 16 Jan 20:58:08 21:01:01 17° 60° (ENE) 21:03:55 437.505/2401.250
TIGRISAT 16 Jan 20:59:44 21:02:41 17° 91° (E) 21:05:38 435.000
Cosmos 2499 16 Jan 21:10:47 21:18:31 38° 291° (WNW) 21:25:48 435.465 / 435.565
Oscar 11 16 Jan 21:11:26 21:14:04 16° 270° (W) 21:16:44 145.826/435.025
ANTELSAT 16 Jan 21:13:20 21:16:58 25° 94° (E) 21:20:38 437.575/2403.000
HUMSAT D 16 Jan 21:14:02 21:18:04 62° 259° (WSW) 21:22:12 437.325/437.525
GONETS M04 16 Jan 21:17:50 21:26:03 45° 290° (WNW) 21:34:24
AO-85 16 Jan 21:20:23 21:22:59 16° 32° (NNE) 21:25:33 145.980
BY70-1 16 Jan 21:27:29 21:30:19 45° 71° (ENE) 21:33:24 436.1900
VELOX 1 16 Jan 21:28:48 21:31:00 14° 58° (ENE) 21:33:14 145.980
PRISM 16 Jan 21:39:19 21:43:25 58° 288° (WNW) 21:47:26 437.425
JAS-2 16 Jan 21:48:48 21:54:43 29° 93° (E) 22:01:02 435.910
AIST 2 16 Jan 22:01:29 22:04:57 25° 322° (NW) 22:08:28 435.215
DX 1 16 Jan 22:14:04 22:17:07 19° 61° (ENE) 22:20:11 434.975-435.025
NANOSAT C BR1 16 Jan 22:17:07 22:18:14 11° 88° (E) 22:19:21 145.865
RS-15 16 Jan 22:19:32 22:28:20 25° 99° (E) 22:37:21 29.354- 29.394
UNISAT 6 16 Jan 22:20:37 22:24:59 70° 287° (WNW) 22:29:25 437.425
UKube-1 16 Jan 22:22:00 22:24:48 17° 60° (ENE) 22:27:35 .
CUBEBUG 1 16 Jan 22:23:41 22:28:03 63° 73° (ENE) 22:32:25 437.445
SPROUT 16 Jan 22:27:24 22:31:11 32° 68° (ENE) 22:35:00 437.525
AISAT 16 Jan 22:28:55 22:33:13 49° 70° (ENE) 22:37:31 437.250
ESTCUBE 1 16 Jan 22:32:49 22:37:19 66° 258° (WSW) 22:41:53 437.505/2401.250
50 SAT 16 Jan 22:33:34 22:36:50 34° 70° (ENE) 22:40:08 437.505
TIGRISAT 16 Jan 22:35:25 22:39:40 54° 288° (WNW) 22:44:00 435.000
YUBILEINY 16 Jan 22:45:54 22:49:35 13° 46° (NE) 22:53:15 435.215
ANTELSAT 16 Jan 22:49:44 22:53:46 37° 291° (WNW) 22:57:52 437.575/2403.000
AO-85 16 Jan 23:00:01 23:03:59 89° 226° (SW) 23:07:52 145.980
BY70-1 16 Jan 23:00:54 23:01:07 10° 272° (W) 23:01:20 436.1900
VELOX 1 16 Jan 23:02:23 23:06:51 82° 256° (WSW) 23:11:20 145.980
QB50P1 16 Jan 23:04:30 23:08:25 36° 97° (E) 23:12:19 145.935-145.965
BUGSAT 1 16 Jan 23:05:27 23:06:52 12° 89° (E) 23:08:17 437.445
POLYITAN 1 16 Jan 23:07:15 23:11:13 39° 98° (E) 23:15:12 437.675
QB50P2 16 Jan 23:08:17 23:12:20 43° 99° (E) 23:16:22 145.880/145.840
GONETS M04 16 Jan 23:23:55 23:25:50 11° 317° (NW) 23:27:46
BEESAT 3 16 Jan 23:28:17 23:30:16 13° 29° (NNE) 23:32:16 437.485
POPSAT HIP 1 16 Jan 23:30:49 23:35:02 68° 103° (ESE) 23:39:13 437.405
JAS-2 16 Jan 23:33:19 23:40:05 67° 289° (WNW) 23:47:34 435.910
ISS 16 Jan 23:37:43 23:40:43 35° 145° (SE) 23:43:45 145.825
AIST 1 16 Jan 23:45:24 23:47:46 14° 65° (ENE) 23:50:08
DUCHIFAT 1 16 Jan 23:46:59 23:51:11 87° 102° (ESE) 23:55:23 145.980
DX 1 16 Jan 23:48:39 23:52:56 54° 259° (W) 23:57:16 434.975-435.025
NANOSAT C BR1 16 Jan 23:50:18 23:54:31 79° 285° (WNW) 23:58:43 145.865
ITUPSAT 1 16 Jan 23:52:46 23:54:35 12° 55° (NE) 23:56:24 437.325
UKube-1 16 Jan 23:56:07 00:00:23 60° 258° (WSW) 00:04:42 .
CUBEBUG 1 17 Jan 00:02:11 00:04:44 15° 270° (W) 00:07:18 437.445
SPROUT 17 Jan 00:03:31 00:07:08 27° 265° (W) 00:10:47 437.525
BEESAT 2 17 Jan 00:03:47 00:05:55 14° 29° (NNE) 00:08:02 435.950
AISAT 17 Jan 00:06:43 00:09:56 19° 268° (W) 00:13:10 437.250
50 SAT 17 Jan 00:07:40 00:10:11 18° 267° (W) 00:12:43 437.505
TISAT 1 17 Jan 00:09:46 00:13:53 60° 73° (ENE) 00:18:01 437.305
RS-15 17 Jan 00:27:00 00:38:56 83° 123° (ESE) 00:51:21 29.354- 29.394
BEESAT 17 Jan 00:27:52 00:31:38 24° 62° (ENE) 00:35:26 436.000
SWISSCUBE 17 Jan 00:28:49 00:32:46 27° 63° (ENE) 00:36:45 437.505
PCSat 17 Jan 00:30:01 00:34:24 26° 109° (ESE) 00:38:48 145.827
BUGSAT 1 17 Jan 00:38:42 00:42:43 69° 286° (WNW) 00:46:43 437.445
YUBILEINY 17 Jan 00:40:23 00:49:00 52° 72° (ENE) 00:57:31 435.215
QB50P1 17 Jan 00:40:37 00:44:01 24° 295° (WNW) 00:47:25 145.935-145.965
Cosmos 2504 17 Jan 00:40:47 00:47:04 27° 63° (ENE) 00:53:04 435.465 / 435.565
POLYITAN 1 17 Jan 00:43:30 00:46:49 23° 296° (WNW) 00:50:07 437.675
QB50P2 17 Jan 00:44:42 00:47:53 21° 296° (WNW) 00:51:04 145.880/145.840
Gurwin Techsat 1B 17 Jan 00:58:40 01:03:13 28° 94° (E) 01:07:42 435.225
MOZHAYETS 4 17 Jan 01:01:02 01:03:42 15° 59° (ENE) 01:06:22
BEESAT 3 17 Jan 01:04:45 01:08:43 59° 49° (NE) 01:12:40 437.485
POPSAT HIP 1 17 Jan 01:07:59 01:10:18 15° 300° (WNW) 01:12:36 437.405
ISS 17 Jan 01:13:56 01:17:09 53° 344° (NNW) 01:20:20 145.825
Oscar 19 17 Jan 01:17:09 01:22:21 70° 103° (ESE) 01:27:30 437.125/150
M-CUBED/EXP-1 PRIME 17 Jan 01:19:10 01:22:20 20° 58° (ENE) 01:25:22 437.505
JAS-2 17 Jan 01:20:12 01:24:07 16° 308° (NW) 01:28:14 435.910
AIST 1 17 Jan 01:21:36 01:25:50 63° 265° (W) 01:30:02
DUCHIFAT 1 17 Jan 01:24:46 01:26:13 12° 302° (WNW) 01:27:41 145.980
ITUPSAT 1 17 Jan 01:26:52 01:31:36 78° 74° (ENE) 01:36:24 437.325
NANOSAT C BR1 17 Jan 01:29:13 01:29:30 10° 304° (WNW) 01:29:46 145.865
Cosmos 2491 17 Jan 01:31:37 01:39:45 46° 87° (E) 01:47:55 435.465 / 435.565
BEESAT 2 17 Jan 01:40:29 01:44:30 61° 50° (NE) 01:48:31 435.950
TISAT 1 17 Jan 01:47:38 01:49:55 14° 270° (W) 01:52:12 437.305
ITAMSAT 1 17 Jan 01:52:06 01:55:35 18° 90° (E) 01:59:04 435.822/435.867
AUBIESAT-1 17 Jan 01:58:28 02:02:26 36° 64° (ENE) 02:06:11 437.475
BEESAT 17 Jan 02:04:35 02:09:09 47° 260° (W) 02:13:46 436.000
SWISSCUBE 17 Jan 02:05:54 02:10:23 41° 262° (W) 02:14:54 437.505
KKS-1 17 Jan 02:09:14 02:12:48 24° 64° (ENE) 02:16:23 437.445
PCSat 17 Jan 02:12:06 02:17:26 58° 308° (NW) 02:22:49 145.827
Cosmos 2504 17 Jan 02:33:41 02:41:11 67° 266° (W) 02:48:17 435.465 / 435.565
MOZHAYETS 4 17 Jan 02:35:44 02:40:17 74° 257° (WSW) 02:44:55
YUBILEINY 17 Jan 02:37:36 02:45:37 41° 275° (W) 02:53:36 435.215
Gurwin Techsat 1B 17 Jan 02:38:17 02:43:21 46° 292° (WNW) 02:48:24 435.225
RS-15 17 Jan 02:41:19 02:52:49 45° 331° (NNW) 03:04:37 29.354- 29.394
BEESAT 3 17 Jan 02:43:20 02:45:56 17° 248° (WSW) 02:48:30 437.485
CUSAT 1 17 Jan 02:45:54 02:50:23 36° 87° (E) 02:56:04 437.405
ISS 17 Jan 02:50:57 02:54:00 36° 3° (N) 02:57:04 145.825
M-CUBED/EXP-1 PRIME 17 Jan 02:52:09 02:56:31 53° 254° (WSW) 03:00:38 437.505
Oscar 19 17 Jan 02:57:30 03:01:09 20° 301° (WNW) 03:04:46 437.125/150
AIST 2 17 Jan 03:02:41 03:05:43 19° 33° (NNE) 03:08:44 435.215
ITUPSAT 1 17 Jan 03:07:37 03:10:01 14° 272° (W) 03:12:27 437.325
AO-7 17 Jan 03:09:51 03:18:01 53° 102° (ESE) 03:26:06 29.400- 29.500
CUBESAT XI-V 17 Jan 03:10:42 03:15:08 43° 69° (ENE) 03:19:37 437.345
STARS 17 Jan 03:12:56 03:17:08 46° 70° (ENE) 03:21:20 437.465
BEESAT 2 17 Jan 03:19:18 03:21:52 16° 248° (WSW) 03:24:25 435.950
Cosmos 2491 17 Jan 03:28:23 03:36:38 46° 290° (WNW) 03:44:57 435.465 / 435.565
ITAMSAT 1 17 Jan 03:30:23 03:35:34 69° 288° (WNW) 03:40:44 435.822/435.867
AUBIESAT-1 17 Jan 03:33:15 03:36:52 25° 259° (WSW) 03:40:20 437.475
KKS-1 17 Jan 03:44:56 03:49:10 41° 262° (W) 03:53:24 437.445
PCSat 17 Jan 03:58:38 04:02:02 16° 331° (NNW) 04:05:26 145.827
BRITE-PL 17 Jan 04:02:23 04:06:44 28° 92° (E) 04:10:46 437.365/2234.400
GOMX 1 17 Jan 04:27:20 04:30:29 18° 89° (E) 04:33:29 467.674
ISS 17 Jan 04:27:31 04:30:46 77° 21° (NNE) 04:34:02 145.825
CUSAT 1 17 Jan 04:27:37 04:32:17 36° 295° (WNW) 04:38:14 437.405
PHONESAT 2.4 17 Jan 04:30:18 04:31:35 14° 171° (S) 04:32:52 2401.200-2431.200
Cosmos 2504 17 Jan 04:30:20 04:32:52 12° 289° (WNW) 04:35:21 435.465 / 435.565
DANDE 17 Jan 04:39:05 04:42:43 77° 283° (WNW) 04:47:39 436.750
AIST 2 17 Jan 04:40:30 04:44:46 88° 233° (SW) 04:49:01 435.215
HORYU 2 17 Jan 04:42:47 04:46:40 29° 96° (E) 04:50:32 437.375
CUBESAT XI-V 17 Jan 04:48:55 04:52:42 24° 268° (W) 04:56:30 437.345
STARS 17 Jan 04:50:29 04:53:43 20° 267° (W) 04:56:56 437.465
Cubesat XI-IV 17 Jan 04:55:01 04:58:18 16° 89° (E) 05:01:35 437.490
RS-15 17 Jan 04:58:20 05:09:20 35° 5° (N) 05:20:17 29.354- 29.394
STRAND 1 17 Jan 04:58:50 05:02:48 23° 61° (ENE) 05:06:47 437.568
AO-7 17 Jan 05:02:54 05:10:39 44° 303° (WNW) 05:18:22 29.400- 29.500
Cosmos 2499 17 Jan 05:05:18 05:10:34 21° 59° (ENE) 05:15:41 435.465 / 435.565
ITAMSAT 1 17 Jan 05:12:07 05:14:06 12° 308° (NW) 05:16:05 435.822/435.867
NOAA 15 17 Jan 05:17:22 05:21:50 27° 94° (E) 05:26:16 137.62
DOVE 4 17 Jan 05:25:56 05:29:33 26° 94° (E) 05:33:03 437.250
GONETS M04 17 Jan 05:26:56 05:34:21 29° 62° (ENE) 05:41:44
Cosmos 2491 17 Jan 05:34:19 05:36:23 11° 316° (NW) 05:38:27 435.465 / 435.565
BRITE-PL 17 Jan 05:40:34 05:45:22 40° 293° (WNW) 05:49:48 437.365/2234.400
CINEMA 3 17 Jan 05:48:01 05:48:41 10° 87° (E) 05:49:21 145.822/145.860
CUTE-I 17 Jan 05:51:45 05:56:57 50° 100° (E) 06:02:07 437.470
LilacSat-2 17 Jan 05:55:07 05:58:58 64° 100° (E) 06:02:48 437.200
PHONESAT 2.4 17 Jan 06:03:51 06:05:16 14° 187° (S) 06:06:41 2401.200-2431.200
ISS 17 Jan 06:04:27 06:06:58 21° 221° (SW) 06:09:30 145.825
GOMX 1 17 Jan 06:04:29 06:08:59 51° 289° (WNW) 06:13:11 467.674
NOAA 18 17 Jan 06:06:37 06:11:41 37° 97° (E) 06:16:41 137.9125
HORYU 2 17 Jan 06:19:14 06:23:14 33° 293° (WNW) 06:27:13 437.375
AIST 2 17 Jan 06:21:17 06:22:33 11° 252° (WSW) 06:23:50 435.215
Cubesat XI-IV 17 Jan 06:33:38 06:38:59 77° 288° (WNW) 06:44:19 437.490
CUTE 1.7 + AOD 2 17 Jan 06:35:53 06:39:09 21° 92° (E) 06:42:23 437.475
STRAND 1 17 Jan 06:36:39 06:41:38 55° 259° (W) 06:46:40 437.568
HO-68 17 Jan 06:50:24 06:56:58 36° 96° (E) 07:03:28 435.675
O/OREOS (USA 219) 17 Jan 06:53:17 06:57:45 72° 112° (ESE) 07:02:13 437.305
NOAA 15 17 Jan 06:56:44 07:01:50 48° 292° (WNW) 07:06:54 137.62
Cosmos 2499 17 Jan 06:57:28 07:04:46 84° 264° (W) 07:11:49 435.465 / 435.565
PRISM 17 Jan 06:57:38 07:00:23 17° 62° (ENE) 07:03:11 437.425
AO-7 17 Jan 06:57:40 07:01:17 14° 326° (NW) 07:04:55 29.400- 29.500
DOVE 4 17 Jan 07:03:30 07:07:19 31° 293° (WNW) 07:11:00 437.250
CANX-2 17 Jan 07:03:41 07:07:50 44° 99° (E) 07:11:57 2200.000
CUBEBUG 2 17 Jan 07:06:35 07:09:38 19° 92° (E) 07:12:44 437.445
RS-15 17 Jan 07:13:05 07:25:16 56° 38° (NE) 07:37:06 29.354- 29.394
CINEMA 3 17 Jan 07:22:14 07:26:23 80° 286° (WNW) 07:30:36 145.822/145.860
SEEDS 17 Jan 07:22:55 07:26:59 42° 98° (E) 07:31:01 437.485
GONETS M04 17 Jan 07:23:18 07:32:07 76° 265° (W) 07:40:56
LilacSat-2 17 Jan 07:30:56 07:32:47 13° 299° (WNW) 07:34:37 437.200
PCSat 17 Jan 07:31:07 07:33:57 14° 25° (NNE) 07:36:46 145.827
CUTE-I 17 Jan 07:32:19 07:36:44 27° 298° (WNW) 07:41:09 437.470
SO-50 17 Jan 07:34:53 07:38:07 18° 112° (ESE) 07:41:18 436.795
COMPASS 1 17 Jan 07:35:44 07:39:42 38° 97° (E) 07:43:38 437.405
UWE-3 17 Jan 07:42:37 07:46:21 28° 95° (E) 07:50:09 435.000/436.395/437.385
NOAA 18 17 Jan 07:47:22 07:52:19 36° 296° (WNW) 07:57:15 137.9125
UNISAT 6 17 Jan 07:47:30 07:50:21 18° 62° (ENE) 07:53:12 437.425
FUNcube-1 17 Jan 07:49:34 07:52:44 19° 92° (E) 07:55:57 145.935
AAUSAT CUBESAT 2 17 Jan 07:50:56 07:54:57 43° 98° (E) 07:58:56 437.432
TIGRISAT 17 Jan 08:01:32 08:04:49 22° 64° (ENE) 08:08:06 435.000
JAS-2 17 Jan 08:07:48 08:10:44 15° 51° (NE) 08:13:48 435.910
ZACube-1 17 Jan 08:09:52 08:13:48 33° 96° (E) 08:17:48 437.345
CUTE 1.7 + AOD 2 17 Jan 08:11:05 08:15:11 43° 290° (WNW) 08:19:14 437.475
ANTELSAT 17 Jan 08:15:13 08:18:57 31° 67° (ENE) 08:22:44 437.575/2403.000
Cubesat XI-IV 17 Jan 08:15:35 08:18:12 14° 306° (NW) 08:20:50 437.490
PRISM 17 Jan 08:31:13 08:35:18 54° 259° (W) 08:39:25 437.425
O/OREOS (USA 219) 17 Jan 08:34:42 08:37:41 17° 313° (NW) 08:40:41 437.305
HO-68 17 Jan 08:38:00 08:44:55 52° 296° (WNW) 08:51:47 435.675
CANX-2 17 Jan 08:40:09 08:43:24 21° 296° (WNW) 08:46:39 2200.000
CUBEBUG 2 17 Jan 08:42:24 08:46:30 47° 289° (WNW) 08:50:41 437.445
Cosmos 2499 17 Jan 08:52:43 08:56:37 16° 285° (WNW) 09:00:29 435.465 / 435.565
Oscar 11 17 Jan 08:53:10 08:57:33 78° 102° (ESE) 09:01:54 145.826/435.025
HUMSAT D 17 Jan 08:54:50 08:57:42 17° 91° (E) 09:00:34 437.325/437.525
SEEDS 17 Jan 08:59:08 09:02:25 22° 296° (WNW) 09:05:41 437.485
DUCHIFAT 1 17 Jan 09:09:03 09:10:34 12° 58° (ENE) 09:12:05 145.980
COMPASS 1 17 Jan 09:11:42 09:15:03 23° 295° (WNW) 09:18:23 437.405
NANOSAT C BR1 17 Jan 09:11:56 09:14:02 14° 59° (ENE) 09:16:09 145.865
SO-50 17 Jan 09:13:24 09:18:07 69° 310° (NW) 09:22:45 436.795
PCSat 17 Jan 09:13:35 09:18:48 44° 48° (NE) 09:23:59 145.827
UWE-3 17 Jan 09:19:00 09:22:49 32° 292° (WNW) 09:26:43 435.000/436.395/437.385
GONETS M04 17 Jan 09:22:15 09:27:23 17° 287° (WNW) 09:32:32
UNISAT 6 17 Jan 09:22:31 09:26:41 54° 260° (W) 09:30:53 437.425
FUNcube-1 17 Jan 09:25:03 09:29:12 47° 289° (WNW) 09:33:26 145.935
RS-15 17 Jan 09:26:09 09:38:10 62° 244° (WSW) 09:49:46 29.354- 29.394
AAUSAT CUBESAT 2 17 Jan 09:27:00 09:30:10 21° 296° (WNW) 09:33:18 437.432
TIGRISAT 17 Jan 09:37:16 09:41:17 41° 262° (W) 09:45:19 435.000
DELFI C3 17 Jan 09:40:51 09:44:54 89° 274° (W) 09:48:53 145.870
ZACube-1 17 Jan 09:46:20 09:50:00 28° 293° (WNW) 09:53:45 437.345
JAS-2 17 Jan 09:49:30 09:54:47 81° 73° (ENE) 10:00:36 435.910
ANTELSAT 17 Jan 09:52:00 09:55:40 28° 265° (W) 09:59:23 437.575/2403.000
BUGSAT 1 17 Jan 09:58:05 10:00:12 14° 60° (ENE) 10:02:19 437.445
QB50P1 17 Jan 09:59:41 10:03:37 41° 70° (ENE) 10:07:35 145.935-145.965
BY70-1 17 Jan 10:00:18 10:02:50 19° 93° (E) 10:05:17 436.1900
POLYITAN 1 17 Jan 10:02:36 10:06:34 44° 70° (ENE) 10:10:34 437.675
QB50P2 17 Jan 10:03:38 10:07:40 48° 71° (ENE) 10:11:44 145.880/145.840
ESTCUBE 1 17 Jan 10:22:43 10:26:10 21° 92° (E) 10:29:36 437.505/2401.250
POPSAT HIP 1 17 Jan 10:25:57 10:30:08 75° 73° (ENE) 10:34:20 437.405
HO-68 17 Jan 10:27:55 10:31:04 13° 317° (NW) 10:34:12 435.675
HUMSAT D 17 Jan 10:29:27 10:33:35 51° 288° (WNW) 10:37:45 437.325/437.525
Oscar 11 17 Jan 10:30:54 10:33:06 14° 301° (WNW) 10:35:18 145.826/435.025
DUCHIFAT 1 17 Jan 10:41:26 10:45:36 86° 251° (WSW) 10:49:48 145.980
NANOSAT C BR1 17 Jan 10:45:02 10:49:13 73° 257° (WSW) 10:53:25 145.865
Gurwin Techsat 1B 17 Jan 10:47:49 10:48:59 11° 51° (NE) 10:50:08 435.225
VELOX 1 17 Jan 10:50:34 10:53:05 15° 90° (E) 10:55:36 145.980
SO-50 17 Jan 10:56:16 10:59:24 17° 331° (NNW) 11:02:31 436.795
PCSat 17 Jan 10:57:13 11:02:06 35° 248° (WSW) 11:06:57 145.827
Oscar 19 17 Jan 10:59:30 11:03:25 22° 60° (ENE) 11:07:22 437.125/150
DELFI C3 17 Jan 11:18:18 11:19:01 10° 302° (WNW) 11:19:44 145.870
50 SAT 17 Jan 11:29:11 11:32:12 25° 95° (E) 11:35:10 437.505
BY70-1 17 Jan 11:30:13 11:33:18 30° 291° (WNW) 11:36:15 436.1900
BUGSAT 1 17 Jan 11:31:01 11:35:05 66° 259° (WSW) 11:39:07 437.445
DX 1 17 Jan 11:34:12 11:37:27 20° 93° (E) 11:40:40 434.975-435.025
CUSAT 1 17 Jan 11:34:24 11:37:07 12° 47° (NE) 11:39:52 437.405
QB50P1 17 Jan 11:36:23 11:39:34 21° 267° (W) 11:42:46 145.935-145.965
Cosmos 2491 17 Jan 11:37:39 11:44:57 28° 62° (ENE) 11:52:14 435.465 / 435.565
JAS-2 17 Jan 11:37:51 11:40:50 15° 275° (W) 11:43:56 435.910
POLYITAN 1 17 Jan 11:39:33 11:42:34 19° 268° (W) 11:45:38 437.675
UKube-1 17 Jan 11:40:48 11:43:43 17° 92° (E) 11:46:37 .
QB50P2 17 Jan 11:40:51 11:43:44 18° 268° (W) 11:46:38 145.880/145.840
RS-15 17 Jan 11:41:56 11:47:49 15° 268° (W) 11:53:38 29.354- 29.394
CUBEBUG 1 17 Jan 11:45:07 11:49:30 82° 104° (ESE) 11:53:49 437.445
SPROUT 17 Jan 11:45:17 11:49:18 39° 98° (E) 11:53:17 437.525
AISAT 17 Jan 11:51:56 11:56:19 63° 102° (ESE) 12:00:39 437.250
YUBILEINY 17 Jan 11:58:10 11:58:55 10° 67° (ENE) 11:59:41 435.215
ESTCUBE 1 17 Jan 11:58:50 12:03:13 47° 290° (WNW) 12:07:32 437.505/2401.250
POPSAT HIP 1 17 Jan 12:05:01 12:06:26 11° 272° (W) 12:07:51 437.405
AO-7 17 Jan 12:22:03 12:28:33 26° 48° (NE) 12:35:04 29.400- 29.500
Gurwin Techsat 1B 17 Jan 12:22:39 12:27:51 59° 70° (ENE) 12:33:05 435.225
VELOX 1 17 Jan 12:25:36 12:29:59 63° 288° (WNW) 12:34:18 145.980
Oscar 19 17 Jan 12:37:11 12:42:19 61° 258° (WSW) 12:47:30 437.125/150
50 SAT 17 Jan 13:02:23 13:05:21 25° 293° (WNW) 13:08:18 437.505
DX 1 17 Jan 13:09:42 13:13:51 45° 291° (WNW) 13:17:59 434.975-435.025
ITAMSAT 1 17 Jan 13:12:42 13:17:26 38° 66° (ENE) 13:22:11 435.822/435.867
CUSAT 1 17 Jan 13:13:41 13:21:10 45° 69° (ENE) 13:28:35 437.405
UKube-1 17 Jan 13:15:52 13:20:03 51° 290° (WNW) 13:24:14 .
AO-85 17 Jan 13:18:54 13:21:21 14° 111° (ESE) 13:23:42 145.980
SPROUT 17 Jan 13:21:39 13:25:01 23° 296° (WNW) 13:28:23 437.525
CUBEBUG 1 17 Jan 13:23:10 13:25:09 13° 302° (WNW) 13:27:08 437.445
Cosmos 2504 17 Jan 13:23:54 13:30:02 22° 79° (ENE) 13:35:58 435.465 / 435.565
ITUPSAT 1 17 Jan 13:25:20 13:28:14 16° 90° (E) 13:31:07 437.325
TISAT 1 17 Jan 13:25:45 13:29:56 69° 103° (ESE) 13:34:04 437.305
DANDE 17 Jan 13:28:30 13:34:19 25° 63° (ENE) 13:40:45 436.750
AISAT 17 Jan 13:29:33 13:32:18 17° 300° (WNW) 13:35:04 437.250
Cosmos 2491 17 Jan 13:33:59 13:42:46 77° 265° (W) 13:51:32 435.465 / 435.565
YUBILEINY 17 Jan 13:45:03 13:53:28 53° 89° (E) 14:01:56 435.215
AIST 1 17 Jan 13:53:33 13:57:53 64° 96° (E) 14:02:12
BEESAT 17 Jan 14:01:19 14:05:41 34° 96° (E) 14:10:01 436.000
SWISSCUBE 17 Jan 14:02:30 14:07:00 39° 98° (E) 14:11:28 437.505
Gurwin Techsat 1B 17 Jan 14:04:11 14:08:12 22° 269° (W) 14:12:14 435.225
AO-7 17 Jan 14:11:57 14:20:20 88° 69° (ENE) 14:28:47 29.400- 29.500
SO-50 17 Jan 14:22:14 14:24:22 13° 21° (NNE) 14:26:30 436.795
MOZHAYETS 4 17 Jan 14:28:06 14:31:38 21° 92° (E) 14:35:08
ITAMSAT 1 17 Jan 14:52:20 14:56:56 32° 264° (W) 15:01:35 435.822/435.867
CUSAT 1 17 Jan 14:55:41 15:03:12 49° 269° (W) 15:10:34 437.405
AO-85 17 Jan 14:56:36 15:01:16 83° 309° (NW) 15:05:36 145.980
ITUPSAT 1 17 Jan 15:01:46 15:06:33 69° 288° (WNW) 15:11:20 437.325
TISAT 1 17 Jan 15:02:50 15:05:02 14° 300° (WNW) 15:07:15 437.305
NOAA 15 17 Jan 15:05:46 15:06:44 10° 50° (NE) 15:07:42 137.62
AUBIESAT-1 17 Jan 15:09:52 15:10:54 11° 95° (E) 15:11:56 437.475
DANDE 17 Jan 15:10:23 15:17:43 86° 260° (W) 15:26:05 436.750
Cosmos 2504 17 Jan 15:13:42 15:22:28 88° 282° (WNW) 15:30:43 435.465 / 435.565
BRITE-PL 17 Jan 15:14:44 15:20:09 47° 69° (ENE) 15:25:32 437.365/2234.400
O/OREOS (USA 219) 17 Jan 15:21:06 15:25:07 31° 55° (NE) 15:29:09 437.305
KKS-1 17 Jan 15:32:36 15:36:28 29° 96° (E) 15:40:18 437.445
Cosmos 2491 17 Jan 15:32:55 15:38:04 17° 287° (WNW) 15:43:15 435.465 / 435.565
AIST 1 17 Jan 15:33:26 15:35:56 15° 295° (WNW) 15:38:27
GOMX 1 17 Jan 15:37:04 15:41:51 33° 67° (ENE) 15:46:29 467.674
CUTE-I 17 Jan 15:39:05 15:42:40 19° 57° (ENE) 15:46:15 437.470
BEESAT 17 Jan 15:39:10 15:43:25 32° 295° (WNW) 15:47:38 436.000
SWISSCUBE 17 Jan 15:40:33 15:44:39 29° 296° (WNW) 15:48:44 437.505
YUBILEINY 17 Jan 15:42:20 15:50:31 41° 292° (WNW) 15:58:48 435.215
HORYU 2 17 Jan 15:43:34 15:47:40 39° 68° (ENE) 15:51:47 437.375
NOAA 18 17 Jan 15:58:06 16:01:36 17° 55° (NE) 16:05:04 137.9125
SO-50 17 Jan 16:01:43 16:06:03 41° 44° (NE) 16:10:18 436.795
M-CUBED/EXP-1 PRIME 17 Jan 16:02:39 16:06:06 62° 107° (ESE) 16:09:23 437.505
MOZHAYETS 4 17 Jan 16:04:34 16:09:02 48° 290° (WNW) 16:13:31
AO-7 17 Jan 16:07:56 16:14:08 23° 270° (W) 16:20:24 29.400- 29.500
Cubesat XI-IV 17 Jan 16:19:32 16:24:22 37° 65° (ENE) 16:29:14 437.490
DOVE 4 17 Jan 16:33:26 16:38:11 43° 70° (ENE) 16:42:41 437.250
BEESAT 3 17 Jan 16:34:58 16:38:30 34° 118° (ESE) 16:42:06 437.485
STARS 17 Jan 16:35:01 16:39:21 58° 101° (ESE) 16:43:38 437.465
AO-85 17 Jan 16:39:15 16:42:16 18° 327° (NNW) 16:45:11 145.980
LilacSat-2 17 Jan 16:39:51 16:43:29 48° 72° (ENE) 16:47:09 437.200
NOAA 15 17 Jan 16:40:15 16:45:25 57° 70° (ENE) 16:50:38 137.62
CUBESAT XI-V 17 Jan 16:40:56 16:45:39 70° 101° (ESE) 16:50:18 437.345
ITUPSAT 1 17 Jan 16:42:13 16:43:31 11° 306° (NW) 16:44:48 437.325
AUBIESAT-1 17 Jan 16:42:21 16:45:44 51° 294° (WNW) 16:48:58 437.475
CUSAT 1 17 Jan 16:42:22 16:43:22 10° 288° (WNW) 16:44:21 437.405
CINEMA 3 17 Jan 16:51:35 16:54:19 16° 62° (ENE) 16:57:00 145.822/145.860
BRITE-PL 17 Jan 16:53:46 16:58:44 31° 267° (W) 17:03:43 437.365/2234.400
DANDE 17 Jan 16:54:29 16:59:44 21° 277° (W) 17:05:26 436.750
O/OREOS (USA 219) 17 Jan 17:00:30 17:04:33 33° 254° (WSW) 17:08:35 437.305
KKS-1 17 Jan 17:09:04 17:13:03 33° 293° (WNW) 17:16:59 437.445
Cosmos 2504 17 Jan 17:10:36 17:17:00 23° 300° (WNW) 17:23:10 435.465 / 435.565
BEESAT 2 17 Jan 17:12:15 17:15:53 37° 119° (ESE) 17:19:36 435.950
GOMX 1 17 Jan 17:14:44 17:19:50 40° 263° (W) 17:24:45 467.674
CUTE-I 17 Jan 17:16:49 17:22:07 77° 256° (WSW) 17:27:28 437.470
HORYU 2 17 Jan 17:20:48 17:24:21 24° 266° (W) 17:27:55 437.375
HO-68 17 Jan 17:22:22 17:28:53 39° 60° (ENE) 17:35:25 435.675
CUTE 1.7 + AOD 2 17 Jan 17:31:35 17:34:53 22° 64° (ENE) 17:38:13 437.475
NOAA 18 17 Jan 17:36:01 17:41:33 88° 254° (WSW) 17:47:05 137.9125
M-CUBED/EXP-1 PRIME 17 Jan 17:38:48 17:40:05 12° 307° (NW) 17:41:21 437.505
SO-50 17 Jan 17:42:27 17:46:23 30° 244° (WSW) 17:50:16 436.795
Cosmos 2499 17 Jan 17:48:15 17:52:46 16° 76° (ENE) 17:57:07 435.465 / 435.565
CANX-2 17 Jan 17:59:10 18:03:14 46° 71° (ENE) 18:07:20 2200.000
Cubesat XI-IV 17 Jan 17:59:38 18:04:28 35° 264° (W) 18:09:19 437.490
CUBEBUG 2 17 Jan 18:07:54 18:11:09 22° 65° (ENE) 18:14:24 437.445
DOVE 4 17 Jan 18:11:46 18:15:59 26° 266° (W) 18:20:02 437.250
STARS 17 Jan 18:12:22 18:15:17 18° 299° (WNW) 18:18:12 437.465
BEESAT 3 17 Jan 18:12:39 18:16:09 30° 318° (NW) 18:19:42 437.485
LilacSat-2 17 Jan 18:15:54 18:18:03 15° 270° (W) 18:20:13 437.200
SEEDS 17 Jan 18:17:18 18:21:17 42° 70° (ENE) 18:25:19 437.485
Oscar 11 17 Jan 18:18:05 18:19:28 11° 57° (ENE) 18:20:51 145.826/435.025
CUBESAT XI-V 17 Jan 18:19:30 18:22:29 17° 300° (WNW) 18:25:28 437.345
NOAA 15 17 Jan 18:21:31 18:25:34 22° 268° (W) 18:29:40 137.62
CINEMA 3 17 Jan 18:26:37 18:31:04 62° 259° (W) 18:35:21 145.822/145.860
COMPASS 1 17 Jan 18:29:10 18:33:03 38° 70° (ENE) 18:36:58 437.405
GONETS M04 17 Jan 18:33:32 18:40:25 27° 80° (E) 18:47:21
UWE-3 17 Jan 18:42:44 18:46:25 32° 68° (ENE) 18:50:07 435.000/436.395/437.385
AAUSAT CUBESAT 2 17 Jan 18:43:47 18:47:43 42° 70° (ENE) 18:51:42 437.432
STRAND 1 17 Jan 18:43:48 18:48:38 40° 98° (E) 18:53:26 437.568
FUNcube-1 17 Jan 18:48:21 18:51:30 22° 64° (ENE) 18:54:41 145.935
BEESAT 2 17 Jan 18:50:14 18:53:45 29° 319° (NW) 18:57:19 435.950
CUTE-I 17 Jan 19:01:37 19:03:04 11° 275° (W) 19:04:30 437.470
CUTE 1.7 + AOD 2 17 Jan 19:06:29 19:10:30 41° 262° (W) 19:14:33 437.475
ZACube-1 17 Jan 19:08:44 19:12:32 36° 69° (ENE) 19:16:21 437.345
